sat.trackr.live / text

‹ back to catalog

STARLINK-33570

NORAD 62776 · 2025-015U

PAYLOAD ACTIVE UNKNOWN

§ Identity

Operator
Country
US
Launch date
2025-01-21
Launch site
AFWTR
Launch vehicle
Mass (kg)
RCS (m²)

Purposes: comms

External: N2YO · Heavens-Above · Gunter

§ Orbital elements

Epoch: 2026-09-21T08:09:55.789920Z

Period
93.85 min
Inclination
53.1575°
Eccentricity
0.0002044
Mean motion
15.34444426 rev/d
Perigee alt
461.2 km
Apogee alt
464.0 km
Semi-major
6,840.7 km
B*
7.0232e-4
RAAN
129.5993°
Arg perigee
79.9031°
Mean anomaly
280.2202°
Rev number
9,443

§ Raw data

STARLINK-335701 62776U 25015U   26264.34022905  .00023461  00000+0  70232-3 0  99982 62776  53.1575 129.5993 0002044  79.9031 280.2202 15.34444426 94436

JSON: /api/v1/satellites/62776 · /tle

For live sub-satellite position, see the globe view (requires WebGL).

§ Visibility from observer

Set your observer location to see the next 7 days of passes ≥ 10°. The values pass through the URL so the page stays shareable.

No JS? Fill the form by hand. The geolocation button needs JavaScript.